カタログに戻る

ONEWEB-0211

運用中通信PO
NORAD 48767·PAYLOAD·🇬🇧 United Kingdom

打ち上げ May 28, 2021 から Vostochny Cosmodrome

Loading…

次のパス (今後24時間)

TLE

最新Source: CelesTrak SupGP

元期: Sep 14, 2026, 09:03 UTC

1 48767C 21045A   26257.37724951  .00002353  00000+0  61993-2 0  2573
2 48767  87.8978 241.2788 0001769  66.6453   4.6606 13.16193580    16

AllMySatでONEWEB-0211をリアルタイム追跡

Download on the App Store